Wind_Speed
10 10 9 8 8 8 7 7 7 7 6 5 5 5 4 4 4 4 4 4 5 5 6 6 6 6 6 6 7 7 7 8 8 9 9 9 9 10 10 11 11 12 12
11 10 10 9 9 9 8 8 8 8 7 7 7 7 6 6 5 5 5 5 5 6 7 7 7 7 8 8 8 8 9 9 10 10 11 11 11 12 12 13 13 13 13
13 12 12 11 11 10 9 9 9 9 9 9 9 9 8 8 7 6 6 6 6 7 7 8 9 9 10 10 10 10 11 11 12 12 13 13 13 14 14 14 14 14 14
14 13 13 13 12 11 11 11 10 11 11 10 10 10 10 9 8 8 8 8 8 8 8 9 10 10 11 11 12 12 13 13 13 14 14 14 15 15 15 15 16 16 16
16 15 14 14 13 13 12 13 12 12 12 12 11 11 11 10 10 9 9 9 9 9 10 10 11 11 12 12 13 14 14 15 15 15 15 15 16 16 17 17 18 18 18
18 17 16 15 15 14 14 14 14 13 13 13 13 12 12 11 12 11 11 10 11 11 11 12 12 13 13 14 14 15 15 16 16 16 17 17 17 18 18 19 20 20 20
19 19 18 17 16 16 15 15 15 15 15 15 14 13 13 12 12 12 12 12 12 13 13 13 14 14 14 14 15 16 16 17 17 18 18 18 19 19 20 21 21 21 22
21 21 20 19 18 18 17 17 17 16 16 16 15 15 15 14 13 14 14 14 14 14 15 15 15 15 15 15 16 16 17 17 18 18 19 19 20 21 21 21 22 22 23
24 23 22 21 20 19 19 18 18 17 17 17 16 16 16 15 15 15 15 15 15 16 16 16 16 16 16 16 17 17 18 18 18 19 20 20 21 21 22 22 22 23 23
26 25 24 23 22 21 21 20 19 19 18 18 17 17 17 16 16 16 16 16 16 17 17 17 17 17 17 17 18 18 19 19 19 20 21 21 22 22 22 23 23 24 24
27 27 26 25 24 23 22 22 21 20 20 19 19 19 19 18 18 18 17 17 17 17 17 17 17 18 18 18 19 19 20 20 20 21 21 22 22 23 23 24 24 25 25
28 28 27 26 26 25 24 23 22 22 21 21 20 21 20 20 20 19 19 18 18 18 18 18 19 19 20 20 20 21 21 21 22 22 23 23 24 24 25 25 26 26 27
30 30 29 28 28 27 26 25 24 24 23 23 22 22 22 22 22 21 20 20 19 19 19 20 20 21 21 21 22 22 22 23 23 24 24 25 26 26 26 27 27 28 28
32 32 31 30 29 28 28 27 26 26 25 24 24 24 24 23 23 22 21 22 22 21 21 22 22 22 23 23 23 24 24 24 25 26 26 27 27 28 28 28 29 29 30
34 33 32 31 30 30 29 29 28 27 26 26 26 25 25 24 24 24 24 24 24 24 24 24 24 24 25 25 25 25 26 26 27 27 28 28 28 28 29 29 30 31 31
35 34 33 33 32 31 31 30 29 29 28 28 27 27 26 26 26 25 25 26 26 26 26 26 26 26 27 27 27 27 28 29 28 29 29 29 29 30 30 31 31 32 33
37 36 35 34 34 34 33 32 32 31 30 29 29 28 28 28 28 27 27 27 27 27 27 28 28 28 28 28 28 29 29 30 30 30 30 31 31 32 32 32 32 33 33
39 38 37 37 36 36 34 34 33 32 32 32 31 30 30 30 29 29 29 29 29 29 29 29 29 29 29 29 29 30 30 31 31 32 32 32 33 33 33 33 33 34 34
40 39 39 38 38 37 37 36 35 35 34 34 33 32 31 31 31 30 30 31 31 31 31 30 30 31 30 30 30 31 31 32 33 33 33 33 34 34 34 34 35 35 35
41 40 40 39 39 39 39 38 37 37 36 36 35 34 34 33 32 32 32 32 32 32 31 31 31 32 32 31 32 32 32 33 33 33 34 34 35 35 35 36 36 36 36
42 41 41 41 41 40 41 40 39 38 38 38 37 36 36 35 34 33 33 33 33 33 33 33 33 33 33 33 33 33 33 34 34 34 35 35 36 36 36 37 37 37 37
42 42 42 42 42 41 41 41 41 40 39 39 38 38 37 36 36 35 34 33 33 34 34 34 35 35 35 34 34 34 34 35 36 36 36 36 37 37 37 38 38 38 39
42 42 42 42 42 42 42 42 42 42 41 40 39 38 38 37 36 35 35 34 34 35 35 36 36 35 36 36 36 36 36 36 36 36 37 37 38 38 39 39 40 40 41
43 43 43 43 42 42 42 43 42 42 42 41 41 40 39 38 37 37 37 36 36 36 36 36 36 36 36 36 36 36 37 37 37 36 36 37 38 39 40 40 41 41 42
43 43 43 43 43 43 42 42 42 42 42 42 41 41 41 40 40 39 39 38 38 38 38 37 37 37 37 37 37 38 38 38 39 38 37 38 39 39 40 41 42 42 42
43 43 43 43 43 42 42 42 41 42 42 42 42 42 42 41 41 40 40 40 39 40 40 40 39 39 38 38 38 39 39 39 39 40 40 40 40 40 40 41 42 43 43
Wind_Direction
215 214 216 219 221 219 220 222 224 224 230 236 237 241 246 248 255 262 268 276 282 285 288 287 285 290 295 299 301 303 305 306 308 310 311 312 310 311 311 311 311 312 313
220 220 222 225 226 226 223 223 224 230 235 239 239 243 246 245 256 270 276 279 281 285 287 286 285 289 292 296 299 300 301 302 304 305 306 306 306 306 307 307 307 307 308
226 226 226 228 231 231 230 229 231 236 239 242 243 246 250 251 257 264 271 279 282 283 285 288 290 291 292 293 295 296 297 299 301 302 302 303 303 304 305 304 304 304 304
229 229 229 231 232 232 233 233 235 239 241 244 244 247 250 251 257 263 268 276 281 284 287 288 290 291 292 292 292 293 295 297 298 300 301 302 302 302 302 302 302 302 302
232 232 232 234 233 233 235 236 237 240 241 243 246 247 248 252 259 265 269 275 280 284 288 291 291 292 293 293 293 293 294 295 297 298 298 298 299 299 299 300 300 300 300
232 234 234 235 235 235 237 238 240 241 241 243 246 248 251 257 260 264 269 273 278 283 287 290 292 293 294 293 293 292 292 293 295 296 296 296 297 297 297 297 297 297 298
232 234 235 236 237 237 238 241 242 243 243 244 246 249 253 259 262 264 270 274 278 282 286 289 290 292 293 293 293 294 293 293 294 294 295 296 297 298 298 297 295 296 297
232 234 235 236 238 238 239 240 243 244 246 246 246 250 254 258 263 268 271 274 277 281 284 287 288 291 293 293 294 295 295 295 296 296 297 297 298 298 298 297 297 297 297
233 234 235 236 238 240 240 241 243 244 246 247 248 251 254 258 263 267 271 274 277 279 281 284 287 288 289 291 293 295 296 296 295 296 297 298 299 299 298 297 297 297 298
233 234 235 236 238 239 241 243 243 244 245 247 249 253 255 259 263 267 270 273 276 278 280 283 285 287 288 290 291 293 295 295 295 296 297 297 298 299 298 298 297 297 298
234 235 236 236 237 239 241 243 244 244 245 247 250 254 257 260 264 267 270 271 273 276 279 282 284 286 288 289 290 291 293 294 295 295 296 297 298 299 298 298 298 298 298
234 235 236 237 238 239 241 242 244 245 246 249 252 255 259 261 263 266 269 271 272 274 277 280 282 284 286 288 289 291 292 293 294 294 295 296 297 297 297 297 297 298 298
233 235 235 237 238 239 241 243 245 246 248 250 253 255 259 261 263 265 268 269 272 274 277 279 281 283 285 286 288 290 291 292 293 294 295 295 296 296 296 296 296 297 297
233 234 235 236 238 239 242 244 246 247 248 250 253 255 258 260 261 264 267 269 271 273 276 278 280 282 284 285 287 289 291 291 292 293 294 295 296 296 297 297 296 296 296
234 235 237 239 239 240 242 244 246 247 249 250 252 255 257 260 263 265 267 269 270 272 274 277 279 281 283 285 286 288 289 290 291 292 293 294 295 296 296 297 296 296 296
235 237 238 240 242 242 243 244 245 247 249 251 253 255 257 260 263 265 267 269 271 272 274 275 278 280 282 283 284 286 288 290 290 291 292 293 294 295 296 296 297 296 296
237 238 239 240 242 243 244 245 246 247 249 251 253 255 257 260 262 265 267 269 270 272 274 275 277 279 281 282 283 285 287 288 290 290 292 292 293 294 296 296 296 297 297
237 238 240 241 242 243 245 246 246 248 250 251 253 255 257 259 262 264 266 269 271 273 275 277 277 279 280 281 282 284 286 287 289 290 291 292 292 293 295 295 295 296 298
238 239 240 241 242 244 244 246 247 248 249 251 253 255 258 260 261 264 266 268 270 272 274 276 278 278 279 281 283 284 285 287 288 290 290 291 292 292 293 294 294 295 296
239 240 241 242 243 244 245 246 248 248 250 251 253 255 257 260 262 264 266 267 269 271 273 276 277 279 280 281 282 284 285 287 288 289 290 290 291 292 293 294 294 295 295
240 241 243 243 244 245 247 247 249 250 251 253 255 257 259 261 262 264 265 267 269 271 273 275 277 278 280 281 282 283 284 287 288 289 289 290 291 292 293 294 295 295 295
240 242 243 245 246 246 247 247 248 250 253 254 257 259 260 261 264 265 266 267 269 271 273 275 276 278 279 280 281 283 284 286 288 288 289 290 290 291 293 294 295 295 296
240 242 243 245 246 247 248 248 248 250 252 254 256 258 260 261 263 264 265 267 269 271 273 275 276 277 278 279 281 282 284 285 287 288 288 289 290 291 293 294 294 295 295
241 242 244 245 246 248 249 249 249 250 251 253 255 257 259 261 262 263 264 266 269 271 273 274 275 276 278 279 280 282 283 285 286 286 286 288 289 291 293 294 295 294 295
241 242 243 245 246 247 248 249 249 250 251 253 255 256 258 260 262 264 265 266 269 271 272 274 274 275 277 278 280 281 283 284 285 286 286 287 289 291 293 294 295 295 295
241 242 243 245 246 247 248 249 250 251 251 253 254 257 258 260 261 264 265 267 269 271 273 273 274 275 277 278 279 281 283 285 285 286 287 289 289 291 293 294 295 295 295
Height
5879 5880 5881 5882 5883 5884 5884 5885 5886 5887 5888 5889 5890 5890 5890 5891 5891 5891 5891 5891 5891 5890 5890 5890 5890 5889 5889 5889 5888 5887 5887 5886 5885 5884 5883 5882 5881 5880 5879 5878 5877 5876 5874
5878 5879 5880 5881 5882 5883 5884 5885 5886 5887 5887 5888 5889 5889 5890 5890 5890 5890 5890 5890 5890 5890 5890 5889 5889 5889 5888 5888 5887 5886 5886 5885 5884 5883 5882 5881 5880 5879 5878 5876 5875 5874 5873
5876 5877 5879 5880 5881 5882 5883 5884 5885 5886 5887 5887 5888 5889 5889 5889 5890 5890 5890 5890 5889 5889 5889 5889 5888 5888 5887 5887 5886 5885 5884 5883 5883 5882 5881 5880 5878 5877 5876 5874 5873 5872 5871
5874 5875 5877 5878 5879 5880 5881 5882 5884 5885 5885 5886 5887 5887 5888 5888 5889 5889 5889 5889 5888 5888 5888 5887 5887 5886 5886 5885 5884 5884 5883 5882 5881 5880 5879 5878 5876 5875 5874 5872 5871 5869 5868
5872 5873 5875 5876 5877 5878 5880 5881 5882 5883 5884 5885 5885 5886 5887 5887 5887 5888 5887 5887 5887 5887 5886 5886 5885 5885 5884 5883 5882 5882 5881 5880 5879 5878 5876 5875 5874 5872 5871 5870 5868 5867 5865
5869 5870 5872 5874 5875 5876 5878 5879 5880 5881 5882 5883 5883 5884 5885 5886 5886 5886 5886 5886 5886 5885 5885 5884 5884 5883 5882 5881 5880 5879 5878 5877 5876 5875 5874 5873 5871 5870 5868 5867 5865 5864 5862
5866 5867 5869 5871 5872 5874 5875 5877 5878 5879 5880 5881 5881 5882 5883 5884 5884 5884 5884 5884 5884 5883 5883 5882 5882 5881 5880 5879 5878 5877 5876 5875 5873 5872 5871 5870 5868 5867 5865 5864 5862 5861 5859
5862 5864 5866 5868 5869 5871 5873 5874 5875 5876 5877 5878 5879 5880 5881 5881 5881 5882 5882 5881 5881 5881 5880 5880 5879 5878 5878 5877 5875 5874 5873 5872 5871 5869 5868 5866 5865 5863 5862 5860 5858 5857 5855
5858 5860 5862 5864 5866 5868 5870 5871 5872 5874 5875 5876 5877 5877 5878 5878 5879 5879 5879 5879 5878 5878 5878 5877 5876 5876 5875 5874 5873 5872 5870 5869 5868 5866 5865 5863 5862 5860 5858 5856 5855 5853 5851
5854 5856 5859 5861 5863 5865 5866 5868 5869 5871 5872 5873 5874 5874 5875 5875 5876 5876 5876 5876 5875 5875 5875 5874 5873 5873 5872 5871 5870 5869 5868 5866 5865 5863 5861 5860 5858 5856 5854 5852 5850 5849 5847
5850 5852 5855 5857 5859 5861 5863 5864 5866 5867 5869 5870 5870 5871 5872 5872 5873 5873 5873 5872 5872 5872 5871 5871 5870 5869 5869 5868 5867 5865 5864 5863 5861 5860 5858 5856 5854 5852 5850 5848 5846 5844 5842
5846 5848 5850 5852 5855 5857 5859 5860 5862 5864 5865 5866 5867 5868 5868 5869 5869 5869 5869 5869 5869 5869 5868 5867 5867 5866 5865 5864 5863 5862 5860 5859 5858 5856 5854 5852 5850 5848 5846 5844 5841 5839 5837
5840 5843 5845 5848 5850 5852 5854 5856 5858 5859 5860 5862 5863 5863 5864 5865 5865 5865 5865 5865 5865 5865 5864 5864 5863 5862 5861 5860 5859 5858 5856 5855 5853 5851 5849 5847 5845 5843 5841 5838 5836 5834 5831
5835 5837 5840 5842 5845 5847 5849 5851 5853 5855 5856 5857 5858 5859 5860 5860 5861 5861 5861 5861 5861 5861 5860 5860 5859 5858 5857 5856 5855 5854 5852 5851 5849 5846 5844 5842 5840 5838 5835 5833 5830 5828 5825
5828 5831 5834 5837 5839 5842 5844 5846 5848 5849 5851 5852 5853 5854 5855 5856 5856 5856 5856 5856 5856 5856 5856 5855 5855 5854 5853 5851 5850 5849 5847 5846 5844 5841 5839 5837 5834 5832 5830 5827 5824 5821 5819
5822 5825 5828 5831 5833 5836 5838 5840 5842 5844 5845 5847 5848 5849 5850 5850 5851 5851 5851 5851 5851 5851 5851 5850 5849 5849 5847 5846 5845 5843 5842 5840 5838 5836 5834 5831 5829 5826 5824 5821 5818 5815 5812
5816 5819 5822 5825 5827 5829 5831 5834 5836 5838 5839 5841 5842 5843 5844 5845 5845 5846 5846 5846 5846 5846 5845 5844 5844 5843 5842 5840 5839 5838 5836 5834 5832 5830 5828 5825 5823 5820 5818 5815 5812 5809 5806
5808 5812 5815 5818 5820 5822 5825 5827 5829 5831 5833 5834 5835 5837 5838 5839 5839 5840 5840 5840 5840 5839 5839 5839 5838 5837 5836 5834 5833 5832 5830 5828 5826 5824 5822 5819 5817 5814 5811 5808 5805 5802 5799
5800 5804 5807 5810 5813 5815 5818 5820 5822 5824 5826 5827 5828 5830 5831 5832 5833 5833 5834 5834 5833 5833 5833 5832 5832 5831 5830 5828 5827 5825 5824 5822 5820 5817 5815 5813 5810 5807 5804 5801 5798 5795 5792
5792 5796 5799 5802 5805 5808 5810 5812 5814 5816 5818 5820 5821 5823 5824 5825 5826 5826 5827 5827 5827 5826 5826 5826 5825 5824 5823 5822 5820 5819 5817 5815 5813 5811 5808 5806 5803 5800 5797 5794 5791 5788 5784
5784 5787 5790 5793 5797 5799 5802 5804 5806 5808 5810 5812 5814 5815 5816 5817 5818 5819 5819 5819 5819 5819 5819 5818 5818 5817 5816 5815 5814 5812 5810 5808 5806 5804 5801 5798 5795 5792 5789 5786 5783 5780 5776
5776 5779 5782 5784 5788 5791 5793 5795 5798 5800 5802 5804 5806 5807 5808 5809 5810 5811 5812 5812 5812 5812 5812 5811 5810 5809 5808 5807 5806 5805 5803 5802 5799 5797 5794 5791 5788 5785 5782 5778 5775 5771 5768
5767 5770 5773 5775 5778 5781 5784 5786 5789 5791 5794 5796 5798 5799 5800 5801 5802 5803 5803 5804 5804 5804 5803 5803 5803 5802 5801 5800 5798 5797 5796 5794 5792 5790 5787 5783 5780 5777 5773 5770 5766 5763 5759
5757 5760 5763 5766 5769 5771 5774 5777 5779 5782 5784 5787 5788 5790 5791 5793 5794 5794 5795 5795 5796 5796 5795 5795 5794 5793 5793 5792 5790 5789 5787 5785 5784 5783 5780 5776 5772 5769 5765 5761 5758 5754 5750
5746 5750 5753 5756 5759 5762 5765 5767 5770 5772 5775 5777 5779 5781 5783 5784 5785 5786 5786 5787 5787 5787 5787 5786 5786 5785 5784 5783 5782 5780 5778 5776 5774 5773 5772 5769 5765 5761 5757 5753 5749 5745 5741
5737 5740 5744 5747 5749 5752 5755 5758 5760 5763 5765 5767 5769 5772 5773 5775 5776 5777 5777 5778 5778 5778 5778 5777 5777 5776 5775 5774 5773 5771 5770 5768 5765 5763 5761 5759 5756 5753 5749 5744 5740 5736 5732